Location: Kelowna
(49.8880°N, 119.4960°W)
Time: 17:12:29
(UTC-07:00)

AO-27 - Pass Details

Date: 07 August 2024
Orbit: 783 x 796 km, 98.8° (Epoch: 14 September)

Event Time Altitude Azimuth Distance (km) Brightness Sun altitude
Exits shadow 22:33:21 - 203° (SSW) 3,080 10.4 -16.3°
Reaches altitude 10° 22:35:33 10° 215° (SW) 2,355 9.9 -16.5°
Maximum altitude 22:39:41 24° 268° (W) 1,616 9.6 -16.9°
Drops below altitude 10° 22:43:51 10° 321° (NW) 2,375 11.5 -17.3°
Sets 22:46:40 0° 335° (NNW) 3,311 12.5 -17.5°
